Chatham, MA

12:12 PM EDT on September 19, 2017 (GMT -0400)
Chatham Municipal

Weather History for KCQX - February, 2014

Change the Weather History Date:

Sunday, February 23, 2014

  Actual Average Record
Temperature  
Mean Temperature 42 °F -  
Max Temperature 46 °F 38 °F 52 °F (2012)
Min Temperature 37 °F 25 °F 10 °F (2015)
Degree Days  
Heating Degree Days 24    
Moisture  
Dew Point 37 °F    
Average Humidity 86    
Maximum Humidity 97    
Minimum Humidity 76    
Precipitation  
Precipitation 0.00 in - - ()
Sea Level Pressure  
Sea Level Pressure 29.95 in    
Wind  
Wind Speed 7 mph (SW)    
Max Wind Speed 10 mph    
Max Gust Speed 22 mph    
Visibility 10 miles    
Events      
Averages and records for this station are not official NWS values.
T = Trace of Precipitation, MM = Missing Value Source: NWS Daily Summary

Daily Weather History Graph

Daily Weather History Graph

Search for Another Location

Airport or City:

Trip Planner

Search our weather history database for the weather conditions in past years. The results will help you decide how hot, cold, wet, or windy it might be!

Date:

Astronomy

Feb. 23, 2014 Rise Set
Actual Time 6:24 AM EST 5:23 PM EST
Civil Twilight 5:55 AM EST 5:51 PM EST
Nautical Twilight 5:23 AM EST 6:23 PM EST
Astronomical Twilight 4:51 AM EST 6:55 PM EST
Moon 1:21 AM EST (2/23) 11:20 AM EST (2/23)
Length of Visible Light 11h 55m
Length of Day
10h 59m
Last Quarter, 39% of the Moon is Illuminated
Feb 23
Last Quarter
Mar 1
New
Mar 8
First Quarter
Mar 16
Full
Mar 23
Last Quarter

Hourly Weather History & Observations

Time (EST) Temp. Windchill Dew Point Humidity Pressure Visibility Wind Dir Wind Speed Gust Speed Precip Events Conditions
12:52 AM 41.0 °F 35.2 °F 34.0 °F 76% 30.04 in 10.0 mi WSW 9.2 mph 21.9 mph N/A   Clear
1:52 AM 41.0 °F 34.7 °F 34.0 °F 76% 30.04 in 10.0 mi SW 10.4 mph 17.3 mph N/A   Clear
2:52 AM 37.9 °F 33.5 °F 34.0 °F 86% 30.04 in 10.0 mi SW 5.8 mph - N/A   Clear
3:52 AM 37.9 °F 33.5 °F 35.1 °F 89% 30.04 in 10.0 mi SW 5.8 mph - N/A   Clear
4:52 AM 37.9 °F 32.7 °F 35.1 °F 89% 30.04 in 10.0 mi SW 6.9 mph - N/A   Clear
5:52 AM 37.9 °F 33.5 °F 36.0 °F 93% 30.04 in 10.0 mi SW 5.8 mph - N/A   Clear
6:52 AM 37.9 °F 34.4 °F 37.0 °F 97% 30.03 in 10.0 mi WSW 4.6 mph - N/A   Clear
7:52 AM 41.0 °F 38.0 °F 37.9 °F 89% 30.04 in 10.0 mi SW 4.6 mph - N/A   Clear
8:52 AM 43.0 °F 38.8 °F 39.0 °F 86% 30.03 in 10.0 mi SW 6.9 mph - N/A   Clear
9:52 AM 45.0 °F 41.2 °F 39.9 °F 82% 30.02 in 10.0 mi SW 6.9 mph - N/A   Clear
10:52 AM 43.0 °F 37.2 °F 37.9 °F 82% 30.01 in 10.0 mi SW 10.4 mph 17.3 mph N/A   Clear
11:52 AM 46.0 °F 42.5 °F 39.9 °F 79% 29.99 in 10.0 mi Variable 6.9 mph 20.7 mph N/A   Clear
12:52 PM 46.0 °F 42.5 °F 39.9 °F 79% 29.94 in 10.0 mi Variable 6.9 mph - N/A   Clear
1:52 PM 45.0 °F 41.2 °F 39.9 °F 82% 29.92 in 10.0 mi SW 6.9 mph - N/A   Clear
2:52 PM 44.1 °F 40.8 °F 39.0 °F 82% 29.90 in 10.0 mi WSW 5.8 mph - N/A   Clear
3:52 PM 43.0 °F 37.7 °F 39.0 °F 86% 29.89 in 10.0 mi SW 9.2 mph 17.3 mph N/A   Clear
4:52 PM 42.1 °F 39.2 °F 37.0 °F 82% 29.88 in 10.0 mi WSW 4.6 mph - N/A   Clear
5:52 PM 39.9 °F 37.8 °F 35.1 °F 83% 29.88 in 10.0 mi South 3.5 mph - N/A   Clear
6:52 PM 39.0 °F 34.8 °F 36.0 °F 89% 29.86 in 10.0 mi SSW 5.8 mph - N/A   Clear
7:52 PM 37.9 °F 34.4 °F 35.1 °F 89% 29.84 in 10.0 mi SW 4.6 mph - N/A   Clear
8:52 PM 37.9 °F 34.4 °F 35.1 °F 89% 29.84 in 10.0 mi SW 4.6 mph - N/A   Partly Cloudy
9:52 PM 37.9 °F 35.5 °F 36.0 °F 93% 29.83 in 10.0 mi SW 3.5 mph - N/A   Clear
10:52 PM 37.0 °F 34.5 °F 35.1 °F 93% 29.80 in 10.0 mi West 3.5 mph - N/A   Partly Cloudy
11:52 PM 39.0 °F 36.8 °F 34.0 °F 82% 29.80 in 10.0 mi West 3.5 mph - N/A   Overcast